Weather History for Lancaster, PA

Change the Weather History Date:

Saturday, November 9, 2013

  Actual Average Record
Temperature  
Mean Temperature 40 °F -  
Max Temperature 51 °F 55 °F 72 °F (1983)
Min Temperature 28 °F 36 °F 22 °F (1992)
Degree Days  
Heating Degree Days 26    
Moisture  
Dew Point 27 °F    
Average Humidity 66    
Maximum Humidity 88    
Minimum Humidity 38    
Precipitation  
Precipitation 0.00 in - - ()
Sea Level Pressure  
Sea Level Pressure 30.20 in    
Wind  
Wind Speed 3 mph (SSW)    
Max Wind Speed 12 mph    
Max Gust Speed -    
Visibility 10 miles    
Events      
Averages and records for this station are not official NWS values.
T = Trace of Precipitation, MM = Missing Value Source: NWS Daily Summary

Daily Weather History Graph

Daily Weather History Graph

Search for Another Location

Airport:

Trip Planner

Search our weather history database for the weather conditions in past years. The results will help you decide how hot, cold, wet, or windy it might be!

Date:

Astronomy

Nov. 09, 2013 Rise Set
Actual Time 6:43 AM EST 4:53 PM EST
Civil Twilight 6:15 AM EST 5:22 PM EST
Nautical Twilight 5:42 AM EST 5:54 PM EST
Astronomical Twilight 5:10 AM EST 6:26 PM EST
Moon 12:19 PM EST (11/9) 11:21 PM EST (11/9)
Length of Visible Light 11h 07m
Length of Day
10h 09m
Waxing Crescent, 44% of the Moon is Illuminated
Nov 9
Waxing Crescent
Nov 10
First Quarter
Nov 17
Full
Nov 25
Last Quarter
Dec 2
New

Hourly Weather History & Observations

Time (EST) Temp. Windchill Dew Point Humidity Pressure Visibility Wind Dir Wind Speed Gust Speed Precip Events Conditions
12:53 AM 32.0 °F 27.5 °F 24.1 °F 73% 30.30 in 10.0 mi West 4.6 mph - N/A   Clear
1:53 AM 32.0 °F - 24.1 °F 73% 30.30 in 10.0 mi Calm Calm - N/A   Clear
2:53 AM 30.0 °F 25.2 °F 23.0 °F 75% 30.30 in 10.0 mi West 4.6 mph - N/A   Clear
3:53 AM 30.9 °F 26.2 °F 24.1 °F 76% 30.30 in 10.0 mi West 4.6 mph - N/A   Clear
4:53 AM 28.9 °F - 24.1 °F 82% 30.31 in 10.0 mi Calm Calm - N/A   Clear
5:53 AM 30.0 °F - 24.1 °F 79% 30.32 in 10.0 mi Calm Calm - N/A   Clear
6:53 AM 28.0 °F - 25.0 °F 88% 30.32 in 9.0 mi Calm Calm - N/A   Clear
7:53 AM 32.0 °F - 27.0 °F 82% 30.34 in 8.0 mi Calm Calm - N/A   Clear
8:53 AM 36.0 °F - 28.0 °F 73% 30.33 in 10.0 mi Calm Calm - N/A   Clear
9:53 AM 39.0 °F - 30.0 °F 70% 30.32 in 10.0 mi Calm Calm - N/A   Clear
10:53 AM 44.1 °F - 28.9 °F 55% 30.28 in 10.0 mi Calm Calm - N/A   Clear
11:53 AM 46.9 °F - 27.0 °F 46% 30.25 in 10.0 mi Calm Calm - N/A   Clear
12:53 PM 50.0 °F - 27.0 °F 41% 30.19 in 10.0 mi South 11.5 mph - N/A   Clear
1:53 PM 50.0 °F - 27.0 °F 41% 30.16 in 10.0 mi SW 6.9 mph - N/A   Clear
2:53 PM 51.1 °F - 26.1 °F 38% 30.13 in 10.0 mi SSW 11.5 mph - N/A   Clear
3:53 PM 50.0 °F - 26.1 °F 39% 30.12 in 10.0 mi SSW 8.1 mph - N/A   Clear
4:53 PM 48.0 °F - 28.0 °F 46% 30.11 in 10.0 mi South 11.5 mph - N/A   Partly Cloudy
5:53 PM 45.0 °F 42.6 °F 28.9 °F 53% 30.10 in 10.0 mi South 4.6 mph - N/A   Clear
6:53 PM 39.9 °F - 28.9 °F 65% 30.09 in 10.0 mi Calm Calm - N/A   Clear
7:53 PM 39.9 °F 36.7 °F 30.0 °F 68% 30.09 in 10.0 mi East 4.6 mph - N/A   Clear
8:53 PM 37.9 °F 34.4 °F 30.0 °F 73% 30.06 in 10.0 mi East 4.6 mph - N/A   Clear
9:53 PM 37.0 °F 34.5 °F 30.9 °F 79% 30.04 in 10.0 mi ENE 3.5 mph - N/A   Clear
10:53 PM 37.0 °F - 30.9 °F 79% 30.01 in 8.0 mi Calm Calm - N/A   Overcast
11:53 PM 37.9 °F - 32.0 °F 79% 29.99 in 10.0 mi Calm Calm - N/A   Partly Cloudy